User: anonymous   Login
Location: Kuppenheim
(48.8299°N, 8.2568°E)
Time: 03:28:16
(UTC+00:00)
Language:

Cosmos 1356 - Orbit

View from above orbital plane
View from above orbital plane
View from above satellite
View from above satellite

Ground track
Ground track

The orbit data is extracted from the following two-line orbital elements,

1 13153U 82039A   21268.12423941  .00005555  00000-0  12558-3 0  9994
2 13153  81.0899 151.6345 0003830  84.2624 275.9056 15.42959446159496
Epoch (UTC): 25 September 2021 02:58:54
Eccentricity: 0.0003830
inclination: 81.0899°
perigee height: 435 km
apogee height: 440 km
right ascension of ascending node: 151.6345°
argument of perigee: 84.2624°
revolutions per day: 15.42959446
mean anomaly at epoch: 275.9056°
orbit number at epoch: 15949

The dashed part of the orbit path shows where the satellite is in the earth's shadow,  

DLR